RH
70 75 75 81 93 98 95 84 79 59 43 40 48 52 62 83 94 95 74 53 43 36 34 30 27 26 27 28 27 23 20 18 17 17 18 17 18 20 21 21 19 19 19 21 19 14 12
69 77 75 80 89 90 93 91 83 81 69 64 58 69 81 79 94 80 60 51 40 36 35 30 28 27 27 28 28 28 28 27 28 28 27 26 25 24 23 20 19 19 19 17 14 12 11
69 72 77 81 89 90 92 97 97 82 73 79 82 78 88 91 66 64 55 51 41 38 36 32 30 30 29 32 31 30 30 30 30 29 29 26 23 23 21 20 19 19 16 15 14 14 14
68 70 73 78 88 91 93 94 95 98 92 91 86 82 77 78 65 60 62 52 45 42 39 36 33 31 32 32 32 30 29 29 28 27 25 22 20 18 19 19 18 17 15 13 14 15 16
64 67 70 76 79 83 90 94 94 92 89 86 83 84 84 78 68 62 61 52 47 44 42 39 35 34 34 32 30 28 26 24 23 21 20 19 17 19 19 17 15 14 12 13 14 19 23
56 60 64 69 71 74 76 83 87 92 90 90 87 83 83 73 64 64 56 49 44 43 42 39 36 35 35 34 30 26 25 22 19 18 17 16 18 20 20 15 16 15 16 19 22 23 26
53 53 55 61 62 64 67 67 71 81 90 87 82 82 74 70 67 62 54 47 44 42 42 43 40 38 36 31 28 24 20 18 17 18 19 18 25 24 23 21 21 24 26 27 25 29 30
48 51 52 52 57 59 63 62 63 63 72 81 74 70 68 63 57 55 50 45 43 39 40 38 35 30 28 24 23 20 18 18 17 19 17 19 24 25 27 29 29 31 30 27 28 30 32
39 44 48 48 51 53 56 58 57 55 54 59 62 56 56 50 46 42 38 34 30 27 29 29 29 27 26 24 24 22 18 19 18 21 21 22 27 30 33 33 30 30 29 30 36 34 33
27 33 36 38 42 45 48 51 51 48 43 38 44 47 44 39 36 35 31 28 25 23 31 26 29 29 27 25 26 25 22 22 24 27 29 31 34 35 35 32 29 24 30 34 38 36 30
18 20 23 27 31 35 40 43 43 39 39 35 35 39 40 35 32 28 29 28 27 27 53 27 31 30 30 30 31 31 30 29 31 33 30 32 32 32 29 30 29 30 35 37 40 40 41
22 17 18 18 20 22 26 29 30 28 25 23 24 27 28 35 34 32 29 28 27 38 41 33 32 32 32 32 33 32 30 29 31 31 30 30 30 31 29 30 32 35 35 33 35 39 47
54 45 20 15 16 17 18 18 19 20 20 19 18 18 20 22 26 30 31 27 36 39 30 32 33 32 31 32 30 29 28 26 26 37 37 28 33 34 34 34 34 33 34 36 40 42 34
47 54 64 52 30 15 13 14 15 15 15 16 17 18 16 17 20 23 24 23 42 31 30 32 33 31 29 29 28 28 25 23 26 24 29 30 36 33 35 32 33 31 27 28 25 21 19
38 43 47 55 61 50 37 17 12 13 12 13 14 15 16 18 19 18 17 30 26 23 24 28 27 25 26 27 26 25 26 25 25 23 20 22 23 29 32 32 30 32 31 29 34 33 30
32 34 38 41 51 61 52 48 33 14 12 11 12 14 14 14 17 17 19 25 25 25 27 27 23 25 23 24 24 21 22 26 26 24 21 20 20 23 30 31 33 33 31 31 32 30 25
30 31 34 36 38 43 58 56 47 39 20 11 11 13 13 13 14 14 26 24 25 26 26 24 23 23 22 22 21 19 21 23 24 25 24 23 22 24 31 34 32 38 36 36 32 29 24
30 32 33 33 35 35 36 44 59 50 41 27 11 13 12 12 15 18 20 22 23 24 24 23 22 21 20 21 19 19 20 21 24 24 24 25 27 25 22 30 32 33 32 30 30 26 32
29 32 34 35 34 33 33 33 36 52 55 43 30 12 11 11 17 19 21 22 23 22 21 20 20 20 20 20 17 19 20 22 25 25 25 26 24 23 20 26 31 33 33 31 29 30 32
27 32 35 32 36 35 35 34 33 32 44 55 44 37 19 13 15 15 18 20 21 21 21 21 20 20 20 20 21 19 18 20 24 25 26 27 26 20 19 16 21 28 30 31 31 40 22
23 30 33 36 35 37 39 39 38 38 35 42 55 59 55 43 23 19 17 18 19 19 20 21 21 20 20 18 18 19 20 19 22 26 28 28 30 30 26 25 26 28 26 26 36 28 27
23 25 28 33 38 36 37 42 44 44 45 41 46 56 62 63 57 46 31 23 21 21 21 22 23 20 23 22 18 20 23 25 23 31 33 35 33 35 34 26 28 30 25 27 26 26 28
23 25 28 33 39 40 38 43 51 52 52 50 47 48 54 63 66 66 57 49 42 40 36 31 31 33 35 34 34 35 38 38 36 36 39 41 44 42 36 36 34 31 25 27 35 35 32
26 29 34 37 51 49 48 53 59 58 59 59 56 55 54 56 59 63 67 70 71 66 58 57 58 55 54 55 55 55 55 56 58 59 61 64 66 63 59 54 50 43 51 50 48 49 55
38 40 42 48 55 55 54 59 65 68 67 67 64 64 61 59 59 59 63 64 69 71 73 73 71 71 69 64 64 63 62 58 64 64 71 75 71 70 69 66 57 54 50 54 59 58 59
48 51 52 56 60 61 63 66 71 71 72 73 73 73 71 68 64 62 61 65 66 66 65 66 66 66 70 69 67 68 68 59 57 64 65 66 66 65 68 68 58 48 49 52 58 54 54
56 58 64 65 66 69 71 73 76 77 76 76 79 78 78 78 71 73 72 71 68 71 71 72 73 73 73 73 73 73 66 61 62 57 67 69 70 72 75 71 57 50 52 51 52 51 55
73 74 75 73 75 70 72 76 79 78 77 77 75 78 82 84 79 75 76 75 74 77 78 75 76 78 80 80 78 76 72 66 65 61 65 64 69 70 72 74 72 55 56 59 59 61 63
76 79 79 81 79 76 74 79 79 80 78 76 76 76 74 76 78 78 77 77 77 78 79 80 80 77 76 78 78 76 73 69 65 64 65 67 64 66 64 60 55 58 59 60 62 63 64